User: anonymous
Location: Owatonna
(44.0840°N, 93.2260°W)
Time: 08:32:41
(UTC-05:00)
Language:

ALOS - Orbit

View from above orbital plane
View from above orbital plane
View from above satellite
View from above satellite

Ground track
Ground track

The orbit data is extracted from the following two-line orbital elements,

1 28931U 06002A   14292.81217012  .00001363  00000-0  28477-3 0   806
2 28931 097.9684 346.4414 0002219 122.2453 340.3993 14.61368656465526
Epoch (UTC): 19 October 2014 19:29:31
Eccentricity: 0.0002219
inclination: 97.9684°
perigee height: 687 km
apogee height: 690 km
right ascension of ascending node: 346.4414°
argument of perigee: 122.2453°
revolutions per day: 14.61368656
mean anomaly at epoch: 340.3993°
orbit number at epoch: 46552

The dashed part of the orbit path shows where the satellite is in the earth's shadow,  

DLR